Location: Vihti�l�
(61.3833°N, 23.0667°E)
Time: 04:46:22
(UTC+00:00)

CZ-2D R/B - Pass Details

Date: 29 November 2020
Orbit: 792 x 845 km, 98.7° (Epoch: 19 January)

Event Time Altitude Azimuth Distance (km) Brightness Sun altitude
Rises 03:23:06 0° 24° (NNE) 3,371 5.6 -25.1°
Reaches altitude 10° 03:26:13 10° 5° (N) 2,445 4.6 -24.7°
Enters shadow 03:28:08 16° 345° (NNW) 2,084 4.1 -24.5°
